[[{"header":{"parameterUnit":"m.s-1","parameterCategory":1,"la1":30.2992,"la2":30.254,"lo1":-89.0895,"lo2":-89.0443,"dy":0.0025,"dx":0.0025,"nx":19,"ny":19,"refTime":"2026-05-07T09:00:00:Z","depth":0,"parameterNumber":2,"parameterNumberName":"U-component_of_WINDS"},"data":[0,0,0,-2.2461,-2.2464,-2.2596,-2.2596,-2.2793,-2.2794,0,0,0,0,0,0,0,0,0,0,0,-2.2434,-2.2436,-2.246,-2.2464,-2.2596,-2.2596,-2.2792,-2.2794,0,0,0,0,0,0,0,0,0,0,0,-2.2434,-2.2436,-2.2438,-2.2465,-2.2596,-2.2596,-2.2792,-2.2683,0,0,0,0,0,0,0,0,0,0,-2.2551,-2.2538,-2.2435,-2.2438,-2.2465,-2.2596,-2.2596,-2.2678,-2.269,-2.2743,0,-2.2791,0,-2.2796,-2.2809,-2.281,0,0,0,-2.2455,-2.2528,-2.2551,-2.2438,-2.2467,-2.2596,-2.2534,-2.2684,-2.2698,-2.276,-2.2793,-2.28,-2.2799,-2.281,-2.2811,-2.3141,-2.3143,0,0,-2.2448,-2.2466,-2.2542,-2.2561,-2.2538,-2.253,-2.2538,-2.2692,-2.2731,-2.2794,-2.2804,-2.2802,-2.2812,-2.2814,-2.3139,-2.3141,0,0,0,-2.2433,-2.2461,-2.248,-2.2554,-2.2575,-2.2534,-2.2544,-2.2725,-2.2729,-2.2806,-2.2804,-2.2813,-2.2816,-2.3137,-2.314,-2.3254,0,0,0,-2.2428,-2.2452,-2.2478,-2.249,-2.2573,-2.2651,-2.2573,-2.2718,-2.2735,-2.2803,-2.2813,-2.2818,-2.3134,-2.3138,-2.3246,-2.3307,0,0,0,-2.2422,-2.2451,-2.2474,-2.2491,-2.2548,-2.2648,-2.2661,-2.2722,-2.2735,-2.281,-2.2818,-2.3133,-2.3137,-2.3239,-2.3295,-2.3401,0,0,0,-2.242,-2.2574,-2.2477,-2.2648,-2.2547,-2.2716,-2.266,-2.2785,-2.2863,-2.2814,-2.3135,-2.3139,-2.3237,-2.3288,-2.3394,-2.3496,-2.3539,0,0,-2.2625,-2.26,-2.2699,-2.2615,-2.2806,-2.2694,-2.2903,-2.2958,-2.295,-2.3079,-2.3086,-2.3249,-2.3294,-2.34,-2.3767,-2.3802,0,0,0,-2.277,-2.2843,-2.2889,-2.2963,-2.3007,-2.3052,-2.3072,-2.3093,-2.3201,-2.3018,-2.3313,-2.334,-2.3401,-2.3449,-2.3479,-2.3532,-2.3161,-2.3161,-2.316,-2.3088,-2.3067,-2.3232,-2.3228,-2.3301,-2.3321,-2.3379,-2.3411,-2.337,-2.344,-2.348,-2.3705,-2.3762,-2.3784,-2.3839,-2.3528,-2.3529,-2.3529,-2.353,-2.3389,-2.349,-2.343,-2.3569,-2.3548,-2.3666,-2.3692,-2.3659,-2.3769,-2.3673,-2.3726,-2.3627,-2.3822,-2.387,-2.3538,-2.3537,-2.3536,-2.3535,-2.3534,-2.3598,-2.3643,-2.3663,-2.3769,-2.3854,-2.3844,-2.3952,-2.3928,-2.3907,-2.3959,-2.4001,-2.3999,-2.3998,-2.398,-2.3981,-2.3981,-2.3982,-2.3983,-2.3983,-2.3808,-2.3828,-2.392,-2.398,-2.4025,-2.4082,-2.4104,-2.415,-2.4194,-2.4169,-2.417,-2.4125,-2.3842,-2.3774,-2.3995,-2.3993,-2.3992,-2.399,-2.399,-2.4128,-2.4052,-2.4194,-2.424,-2.431,-2.4398,-2.4364,-2.4459,-2.4493,-2.4548,-2.4491,-2.4284,-2.4258,-2.4235,-2.4179,-2.4492,-2.4492,-2.4492,-2.4492,-2.4308,-2.429,-2.4432,-2.4507,-2.4577,-2.4562,-2.4729,-2.4749,-2.4758,-2.4779,-2.4729,-2.4651,-2.4628,-2.4616,-2.4584,-2.4532,-2.4927,-2.4928,-2.4928,-2.4505,-2.4494,-2.4639,-2.4643,-2.4697,-2.4745,-2.4902,-2.4994,-2.4988,-2.4945,-2.4796,-2.4777,-2.4651,-2.461,-2.4568,-2.4519,-2.4423,0,0]},{"header":{"parameterUnit":"m.s-1","parameterCategory":1,"la1":30.2992,"la2":30.254,"lo1":-89.0895,"lo2":-89.0443,"dy":0.0025,"dx":0.0025,"nx":19,"ny":19,"refTime":"2026-05-07T09:00:00:Z","depth":0,"parameterNumber":3,"parameterNumberName":"V-component_of_WINDS"},"data":[0,0,0,-1.0201,-1.0201,-1.0197,-1.0197,-1.0204,-1.0204,0,0,0,0,0,0,0,0,0,0,0,-1.0209,-1.0209,-1.0201,-1.0201,-1.0197,-1.0197,-1.0204,-1.0204,0,0,0,0,0,0,0,0,0,0,0,-1.0209,-1.0209,-1.0209,-1.0201,-1.0197,-1.0197,-1.0204,-1.0203,0,0,0,0,0,0,0,0,0,0,-1.0205,-1.0218,-1.0209,-1.0209,-1.0201,-1.0197,-1.0197,-1.0203,-1.0203,-1.0211,0,-1.0219,0,-1.0212,-1.0205,-1.0205,0,0,0,-1.0196,-1.0218,-1.0211,-1.0209,-1.0201,-1.0197,-1.0198,-1.0203,-1.0203,-1.0211,-1.0219,-1.0219,-1.0212,-1.0205,-1.0206,-1.0264,-1.0265,0,0,-1.0197,-1.0212,-1.0211,-1.0211,-1.0212,-1.0198,-1.0198,-1.0203,-1.0212,-1.0219,-1.0219,-1.0212,-1.0206,-1.0206,-1.0264,-1.0264,0,0,0,-1.02,-1.0212,-1.0205,-1.0211,-1.021,-1.0198,-1.0198,-1.0212,-1.0208,-1.0219,-1.0212,-1.0206,-1.0206,-1.0263,-1.0264,-1.0303,0,0,0,-1.02,-1.0214,-1.0205,-1.0215,-1.021,-1.0211,-1.0207,-1.0208,-1.0208,-1.0212,-1.0206,-1.0206,-1.0262,-1.0263,-1.0301,-1.0319,0,0,0,-1.0207,-1.0215,-1.0217,-1.0215,-1.0214,-1.021,-1.0207,-1.0208,-1.0204,-1.0205,-1.0206,-1.0262,-1.0263,-1.0299,-1.0316,-1.0339,0,0,0,-1.0219,-1.0253,-1.0218,-1.0253,-1.0214,-1.0234,-1.0206,-1.0221,-1.0227,-1.0206,-1.0262,-1.0264,-1.0298,-1.0314,-1.0337,-1.0361,-1.0372,0,0,-1.027,-1.0259,-1.0279,-1.0247,-1.0278,-1.0234,-1.0269,-1.0261,-1.0247,-1.0259,-1.026,-1.0301,-1.0316,-1.0338,-1.0431,-1.044,0,0,0,-1.03,-1.0315,-1.0319,-1.0325,-1.0318,-1.0314,-1.0297,-1.0294,-1.0303,-1.0256,-1.0315,-1.0323,-1.0336,-1.0347,-1.0355,-1.0365,-1.0269,-1.0269,-1.0269,-1.0397,-1.0376,-1.0407,-1.0386,-1.0392,-1.0373,-1.0376,-1.0369,-1.0347,-1.0362,-1.0365,-1.0424,-1.0437,-1.0443,-1.0454,-1.0376,-1.0376,-1.0376,-1.0377,-1.0471,-1.0487,-1.0456,-1.0475,-1.0453,-1.0469,-1.0453,-1.0437,-1.0448,-1.042,-1.043,-1.0401,-1.0454,-1.0462,-1.0379,-1.0379,-1.0378,-1.0378,-1.0378,-1.0532,-1.0536,-1.053,-1.0535,-1.0541,-1.0519,-1.0531,-1.0511,-1.0492,-1.0502,-1.0503,-1.0503,-1.0499,-1.0504,-1.0504,-1.0504,-1.0504,-1.0505,-1.0505,-1.0597,-1.0589,-1.0601,-1.0596,-1.0596,-1.0594,-1.0575,-1.0575,-1.057,-1.0555,-1.0554,-1.0532,-1.0463,-1.0446,-1.0508,-1.0507,-1.0507,-1.0507,-1.0506,-1.068,-1.0658,-1.0677,-1.0677,-1.0668,-1.0675,-1.0649,-1.065,-1.0647,-1.0654,-1.0628,-1.058,-1.0568,-1.0562,-1.0548,-1.0632,-1.0632,-1.0632,-1.0632,-1.0732,-1.0723,-1.0737,-1.0739,-1.0738,-1.0715,-1.0737,-1.0723,-1.0704,-1.0701,-1.0686,-1.0665,-1.066,-1.0651,-1.0643,-1.0629,-1.0733,-1.0733,-1.0733,-1.0782,-1.0772,-1.0794,-1.0775,-1.0766,-1.0759,-1.0779,-1.0782,-1.0757,-1.0737,-1.0698,-1.0694,-1.0661,-1.0651,-1.0631,-1.0618,-1.0593,0,0]}]]